Helicity
176 248 180 135 118 122 235 251 315 311 274 192 134 67 27 -8 -5 147 135 163 188 178 114 70 78 68 64 80 74 60 50 42 53 58 -24 -36 -26 -9 -37 45 54 13 -11
236 238 218 189 183 164 205 245 267 304 266 248 193 107 45 -6 -24 19 128 157 219 195 127 103 98 97 66 59 65 56 61 56 63 63 49 36 1 -5 -25 10 60 45 -2
219 213 212 195 187 223 268 290 271 258 269 236 192 109 89 83 8 41 161 190 205 169 139 113 126 105 84 75 76 61 62 84 60 41 47 64 23 25 23 33 35 44 11
188 168 199 222 234 237 265 315 274 225 192 269 237 188 142 107 78 92 161 216 200 180 174 171 185 130 99 74 87 94 77 80 95 58 -3 57 45 21 -24 14 24 40 29
140 128 162 232 306 267 313 351 349 282 217 202 265 235 179 116 50 69 145 219 222 201 217 181 188 129 107 99 100 87 79 76 85 100 77 40 33 -40 -22 -18 33 10 12
65 92 110 140 195 254 294 403 452 388 299 235 203 268 255 188 118 92 166 235 236 237 201 187 165 148 139 110 108 101 93 63 60 72 87 75 66 -7 6 -21 16 41 10
49 88 117 161 178 255 305 366 447 445 384 315 226 209 260 229 130 79 101 206 283 256 192 185 224 209 159 109 83 71 65 63 58 47 81 78 90 24 -14 7 25 24 54
181 115 145 205 282 275 371 391 417 457 440 349 274 209 180 216 158 66 53 176 248 247 215 182 199 214 161 93 83 44 41 57 56 11 64 78 81 49 38 21 26 55 47
179 149 112 160 234 279 348 421 459 445 437 376 283 244 212 158 159 123 70 139 189 200 153 155 101 114 116 100 80 85 -7 -15 -75 -53 19 39 94 47 -7 89 103 78 62
145 133 79 135 206 246 293 343 413 428 420 346 275 224 216 149 123 75 76 100 98 149 196 130 108 101 102 76 78 60 3 -7 -22 -25 -39 36 44 36 71 106 134 115 94
110 60 106 132 191 205 281 296 305 339 345 308 230 217 150 103 75 71 101 92 61 89 106 96 122 84 71 46 52 22 20 33 43 57 49 45 71 98 98 81 116 106 114
151 64 72 136 159 218 232 266 261 253 273 242 223 168 123 118 97 99 100 80 85 105 81 88 75 50 26 25 31 24 7 37 40 37 51 51 58 56 93 81 82 99 114
86 115 217 149 155 205 212 223 229 246 246 200 173 190 179 148 106 80 88 61 53 66 80 78 57 37 21 15 25 26 13 24 45 24 35 31 58 50 61 78 123 176 170
104 162 179 131 156 194 217 230 211 205 224 214 203 216 175 152 131 106 84 56 51 63 78 56 43 29 18 26 21 28 22 38 83 46 27 21 44 52 102 150 139 173 213
81 129 176 162 168 190 192 204 200 163 164 210 189 233 201 184 157 118 89 64 50 40 39 41 37 38 38 37 63 54 36 76 86 70 61 56 73 97 111 160 113 130 165
18 79 137 232 220 200 193 179 171 149 131 154 155 200 226 177 146 115 90 85 57 32 31 42 41 30 21 37 72 78 74 92 82 69 67 72 60 89 102 143 121 107 177
126 113 196 245 213 230 231 191 171 144 144 124 149 175 204 170 145 147 137 98 81 74 55 49 57 49 33 -16 7 101 119 99 65 70 62 33 41 64 94 117 169 181 225
187 270 132 175 172 188 171 169 180 188 172 146 157 168 173 179 176 168 112 63 61 61 55 32 40 42 47 34 14 94 117 82 64 62 58 51 53 44 61 53 60 84 122
206 210 213 126 164 196 163 129 153 191 198 169 137 144 144 126 112 158 151 121 95 80 60 80 78 65 51 61 95 135 110 92 90 91 101 93 64 49 68 68 44 35 28
97 103 217 239 211 158 163 163 143 176 166 146 131 121 152 142 135 153 159 151 129 109 90 62 62 73 71 74 80 84 101 90 84 72 110 130 113 116 100 76 73 58 17
172 176 264 331 376 256 179 153 146 121 133 145 152 138 121 149 138 149 151 138 112 81 52 48 50 64 105 109 78 70 73 96 70 80 100 104 109 108 110 103 100 66 65
198 184 217 246 256 257 245 218 167 71 142 171 188 169 143 142 128 130 163 236 335 198 223 72 64 62 6 88 79 54 58 109 100 78 82 115 129 149 123 104 75 96 110
200 137 134 167 180 168 137 175 221 232 204 145 128 120 126 121 147 165 225 252 257 200 242 207 133 126 155 27 38 70 56 75 134 140 92 78 141 165 156 116 96 101 108
158 167 131 125 126 120 143 126 141 155 194 237 242 199 190 186 175 151 157 197 223 273 278 150 202 201 268 104 26 52 58 108 120 134 153 172 182 252 216 216 139 116 106
188 176 129 89 70 86 104 120 141 151 164 170 154 138 108 113 111 118 97 88 126 177 197 153 160 208 192 47 32 111 139 184 188 151 165 204 216 261 231 197 152 124 110
97 106 125 106 109 101 106 129 140 149 159 188 166 154 127 100 61 57 68 57 42 80 98 115 135 127 91 88 43 36 55 257 189 146 127 191 241 213 190 170 145 128 107
Wind_Speed
28 32 32 31 32 33 39 41 36 36 32 30 31 26 32 39 49 9 8 18 13 7 7 11 14 13 15 26 16 18 19 22 21 22 28 42 45 31 40 29 32 39 51
30 30 30 32 33 38 40 43 35 30 33 34 33 24 28 36 33 23 8 14 16 6 4 7 11 8 9 14 11 13 19 18 16 21 20 19 27 37 42 38 37 38 46
35 32 34 36 38 43 42 41 38 36 25 22 19 21 19 10 33 19 11 14 15 12 11 7 7 7 8 13 10 9 10 15 13 14 20 23 15 4 16 41 44 40 44
33 33 39 43 47 45 44 40 38 34 26 19 21 25 25 26 22 13 3 9 12 8 7 7 6 2 5 7 14 15 10 11 8 11 18 21 20 19 35 26 46 40 47
33 38 44 49 47 44 43 40 38 37 33 29 17 20 20 24 20 1 3 5 5 3 1 2 1 1 6 12 12 23 28 9 8 12 19 6 18 51 50 26 21 40 47
32 40 43 43 41 40 38 39 38 37 35 36 37 26 25 17 17 17 8 10 8 7 6 3 9 5 6 4 13 21 23 29 29 13 8 9 23 55 31 45 7 30 42
36 39 40 37 37 38 40 37 37 35 35 34 34 37 31 27 30 30 23 14 7 5 10 9 7 10 8 8 10 30 44 31 27 17 18 7 5 39 54 28 6 2 13
37 41 38 36 36 42 40 36 33 30 30 30 29 28 31 27 25 31 30 17 11 11 5 11 11 9 9 18 35 7 6 17 34 68 33 6 3 27 18 27 9 33 5
32 36 40 35 37 36 35 35 30 28 25 24 23 21 20 26 26 32 29 22 18 8 12 13 11 15 15 18 14 9 32 25 40 58 12 11 32 7 51 27 21 10 12
30 40 41 35 33 30 30 28 27 24 21 19 17 15 15 22 21 20 20 20 23 11 8 15 17 16 13 10 9 6 15 17 28 24 43 20 11 26 9 31 28 25 19
33 39 30 37 32 29 29 27 25 24 22 21 21 17 17 21 21 21 17 16 13 12 14 10 12 15 16 17 13 11 5 24 38 43 48 26 40 44 17 18 39 29 28
26 31 34 33 30 29 30 27 26 26 25 24 20 22 21 22 22 19 18 20 16 17 19 16 15 16 20 22 18 14 16 23 31 53 52 51 46 62 19 14 35 33 28
19 14 18 20 20 24 28 26 29 27 28 27 27 26 26 24 24 20 20 21 20 20 20 18 18 18 22 22 21 21 23 14 13 50 53 56 49 41 15 12 33 20 15
5 7 18 13 14 20 25 24 26 28 28 30 30 27 29 26 23 21 20 23 23 23 21 22 21 23 24 24 23 21 18 15 21 37 48 54 38 27 14 2 8 13 15
8 5 11 13 13 16 19 19 22 24 25 28 29 28 27 27 23 22 22 24 26 27 27 26 26 24 25 23 21 20 15 15 23 33 42 39 31 16 7 1 4 11 16
9 5 15 14 12 14 16 17 17 19 19 22 22 23 24 25 24 26 27 26 23 25 23 21 21 23 21 21 22 17 14 16 22 29 35 36 28 20 12 11 12 16 18
13 4 8 9 10 9 10 10 9 11 12 12 14 14 16 18 19 19 20 20 21 20 19 21 21 18 14 10 7 14 8 12 18 24 30 32 31 26 17 10 10 15 19
21 20 8 3 6 3 4 3 2 2 4 6 7 7 7 7 8 9 10 11 8 9 13 17 15 14 13 13 4 11 6 7 12 17 21 25 24 25 24 17 11 11 27
33 25 22 5 4 1 1 2 4 5 7 8 8 11 6 6 8 7 3 2 1 3 5 9 6 3 5 6 3 8 3 5 6 8 11 14 17 18 19 20 19 16 10
14 11 19 13 6 8 4 4 5 7 8 9 9 11 11 12 13 13 13 14 17 20 23 27 26 20 15 8 6 4 7 8 9 9 6 3 6 10 10 15 17 15 13
13 14 13 15 18 18 10 9 9 11 10 10 12 14 15 15 15 16 20 22 30 41 49 57 59 55 33 18 11 10 16 15 16 6 10 7 3 4 4 4 10 13 16
10 11 13 18 24 26 23 28 29 30 16 15 18 19 21 21 20 18 23 20 17 21 26 47 42 51 71 37 17 16 10 17 21 20 16 16 6 5 6 7 9 19 24
8 9 13 19 25 29 30 32 39 42 40 29 29 31 29 31 35 34 23 14 10 13 12 17 15 33 33 66 50 23 12 11 17 19 29 37 12 10 8 11 18 24 28
9 15 16 19 24 28 33 36 40 41 40 38 38 38 38 38 35 33 25 21 16 17 16 25 24 23 20 43 60 40 31 29 31 38 35 40 31 18 13 14 23 34 36
13 17 21 24 28 30 35 39 41 42 40 39 38 35 33 33 31 30 24 20 22 24 31 30 23 23 32 33 37 49 49 37 45 48 44 39 34 23 19 18 24 32 46
17 21 25 27 27 29 33 37 41 40 39 39 40 40 37 30 28 28 31 31 29 30 25 25 24 25 32 48 53 63 59 38 31 40 46 41 34 20 19 20 19 27 42
Wind_Direction
139 135 132 133 135 135 138 144 136 141 140 143 146 146 159 174 193 9 83 134 119 73 42 25 7 355 347 325 355 26 38 20 66 53 168 201 200 173 183 156 161 166 179
142 136 133 135 138 144 147 152 146 137 147 150 151 142 151 163 165 157 103 129 138 123 55 16 4 24 25 357 12 12 20 31 80 46 31 14 179 181 183 170 163 165 175
146 136 141 142 142 150 149 151 149 149 136 145 148 143 140 125 170 149 124 128 133 135 127 109 28 69 8 343 3 12 24 10 106 100 48 355 61 331 144 176 174 171 176
140 138 143 150 154 153 154 151 153 153 148 139 151 163 164 166 160 148 136 138 138 121 113 119 99 64 358 337 329 332 348 1 56 79 149 338 9 98 205 208 181 173 179
137 141 145 150 148 149 152 153 156 159 156 158 149 162 173 175 171 187 300 178 169 168 302 111 130 147 332 331 335 317 307 317 353 356 358 42 322 216 217 214 142 176 183
130 140 143 144 146 149 147 151 155 160 160 165 174 169 174 177 180 176 191 171 178 176 189 228 183 198 194 194 336 315 312 302 303 330 359 15 323 241 186 197 352 168 180
137 138 140 141 150 151 157 155 156 160 162 166 171 180 181 182 188 188 178 182 215 255 191 181 224 204 227 213 324 315 294 298 295 306 314 165 179 194 224 174 299 50 299
144 153 151 145 149 160 159 156 160 161 161 165 172 174 181 183 187 192 189 188 211 208 265 200 200 221 213 200 301 261 265 307 290 250 298 302 255 194 191 182 178 295 264
153 157 155 155 156 156 158 161 158 162 160 164 165 168 172 181 186 193 191 190 192 213 198 188 183 193 203 201 203 209 197 193 196 213 207 205 307 224 219 291 288 271 281
149 153 153 153 148 145 148 148 149 151 150 148 152 158 162 173 172 170 175 179 185 182 168 161 165 158 159 166 167 173 163 165 183 199 214 293 283 196 246 287 281 270 273
142 141 139 138 133 125 123 120 126 129 132 134 141 137 145 159 161 164 159 162 156 155 151 134 140 149 153 153 147 142 140 315 300 296 287 307 301 295 294 277 277 270 270
110 116 128 124 122 119 119 116 111 117 121 125 117 136 131 128 135 136 145 148 144 145 146 139 139 146 153 156 151 145 162 328 316 291 295 300 303 287 287 270 268 265 271
112 99 106 117 111 114 120 113 114 109 113 123 129 126 129 124 129 124 129 136 134 139 139 138 140 139 150 149 147 148 156 132 13 301 301 297 303 304 299 281 267 261 262
157 129 113 109 102 109 118 111 112 112 114 117 123 121 130 123 118 110 116 130 138 138 139 142 140 144 144 146 151 143 131 110 36 346 318 306 311 309 310 51 261 256 266
129 146 125 121 107 110 116 113 111 114 109 121 123 120 121 121 114 119 122 131 140 148 150 147 147 144 146 144 138 131 109 67 27 14 353 350 334 345 350 15 252 277 277
150 120 150 139 137 126 127 121 112 112 107 122 121 112 113 114 116 129 135 138 141 150 146 142 145 151 146 145 146 123 92 41 23 13 17 23 24 7 18 320 309 283 272
326 253 178 163 166 158 142 134 110 105 98 101 108 100 112 124 127 129 130 136 143 141 145 150 150 152 148 132 112 149 95 37 30 23 15 18 36 40 32 25 347 308 296
313 333 296 206 175 177 159 129 49 39 45 39 40 45 110 100 84 115 137 136 133 146 154 160 156 156 159 156 116 139 102 49 31 30 30 23 34 40 46 37 28 326 291
292 299 329 251 249 207 160 50 22 327 317 327 335 337 330 322 326 316 301 275 268 292 247 305 299 240 310 174 142 133 41 8 7 23 31 41 39 41 40 39 35 41 47
342 2 339 321 287 296 313 337 335 337 324 313 305 313 312 313 314 307 305 306 307 305 305 300 295 294 292 266 244 272 317 320 327 341 356 77 41 54 55 25 18 24 19
38 28 11 2 351 332 327 324 324 319 318 324 322 315 312 308 307 306 305 307 310 309 304 296 294 288 290 278 251 267 304 315 318 309 329 348 181 338 25 57 4 355 352
40 9 338 330 329 331 337 331 317 316 319 319 320 319 317 314 309 303 311 318 348 328 329 302 305 302 278 289 277 278 269 306 308 322 314 311 228 229 241 306 330 334 321
360 350 340 335 332 332 334 330 323 326 326 319 320 321 319 317 317 316 317 309 282 299 301 307 292 293 324 283 286 282 241 254 285 307 318 315 283 235 232 264 300 306 313
333 326 330 332 333 334 331 328 327 328 329 327 326 325 323 321 322 323 322 309 288 293 295 307 300 309 312 305 270 293 301 304 294 293 298 304 312 307 295 300 292 293 298
320 323 322 322 323 329 329 328 328 327 328 331 332 333 334 334 334 334 335 328 317 312 305 307 291 291 299 302 306 300 304 299 291 287 286 296 303 303 300 299 297 293 289
314 321 320 323 330 334 336 335 333 331 330 331 332 333 336 339 341 345 344 337 331 325 317 307 301 300 303 298 300 301 309 312 286 273 276 287 293 287 287 292 297 294 290